User: anonymous   Login
Location: Penticton
(49.5000°N, 119.5830°W)
Time: 05:15:53
(UTC-07:00)
Language:

NOSS 3-4 (A) - Orbit

View from above orbital plane
View from above orbital plane
View from above satellite
View from above satellite

Ground track
Ground track

The orbit data is extracted from the following two-line orbital elements,

1 31701U 07027A   16204.94237196 0.00000000  00000-0  00000-0 0    05
2 31701  63.4039 202.6735 0163000  29.2795 330.7205 13.40709628    08
Epoch (UTC): 22 July 2016 22:37:00
Eccentricity: 0.0163000
inclination: 63.4039°
perigee height: 984 km
apogee height: 1228 km
right ascension of ascending node: 202.6735°
argument of perigee: 29.2795°
revolutions per day: 13.40709628
mean anomaly at epoch: 330.7205°
orbit number at epoch: 0

The dashed part of the orbit path shows where the satellite is in the earth's shadow,  

DLR